Location: Unspecified
(35.7250°N, 0.0000°E)
Time: 13:22:24
(UTC+00:00)

Vanguard 1 Rocket - Pass Details

Date: 25 June 2019
Orbit: 652 x 4224 km, 34.3° (Epoch: 24 August)

Event Time Altitude Azimuth Distance (km) Brightness Sun altitude
Rises 21:18:30 0° 282° (WNW) 5,656 12.3 -19.3°
Reaches altitude 10° 21:23:07 10° 278° (W) 4,065 11.3 -19.9°
Maximum altitude 21:32:05 47° 209° (SSW) 1,411 8.1 -21.0°
Enters shadow 21:33:55 37° 166° (SSE) 1,476 8.0 -21.2°
Drops below altitude 10° 21:37:18 10° 135° (SE) 2,388 - -21.6°
Sets 21:39:21 0° 128° (SE) 3,151 - -21.9°
